This is the latest recevied weather packets stored in our database for station/object KB9YVI-11. If no packets are shown the sender has not sent any weather packets the latest 10 day(s).
| Time | Temp. | Humidity | Pressure | Rain* | Wind** | Luminosity | Snow |
|---|---|---|---|---|---|---|---|
| 1777924233 | 23.89° C | 74% | 0 hPa | 0 mm | - | - | - |
| 1777923931 | 23.89° C | 78% | 0 hPa | 0 mm | - | - | - |
| 1777923631 | 23.33° C | 81% | 0 hPa | 0 mm | - | - | - |
| 1777923030 | 23.33° C | 86% | 0 hPa | 0 mm | - | - | - |
| 1777922731 | 22.78° C | 89% | 0 hPa | 0 mm | - | - | - |
| 1777922432 | 22.22° C | 95% | 0 hPa | 0 mm | - | - | - |
| 1777921832 | 21.67° C | 98% | 0 hPa | 0 mm | - | - | - |
| 1777921532 | 21.11° C | 100% | 0 hPa | 0 mm | - | - | - |
| 1777920632 | 18.89° C | 100% | 0 hPa | 0.25 mm | - | - | - |
| 1777919732 | 17.78° C | 100% | 0 hPa | 0.25 mm | - | - | - |
| 1777919430 | 17.78° C | 100% | 0 hPa | 0.25 mm | - | - | - |
| 1777918833 | 16.67° C | 100% | 0 hPa | 0.25 mm | - | - | - |
| 1777918233 | 16.11° C | 100% | 0 hPa | 0.76 mm | - | - | - |
| 1777917333 | 16.11° C | 100% | 0 hPa | 2.03 mm | - | - | - |
| 1777915830 | 16.11° C | 100% | 0 hPa | 2.54 mm | - | - | - |
| 1777915533 | 16.11° C | 100% | 0 hPa | 2.54 mm | - | - | - |
| 1777915233 | 16.11° C | 100% | 0 hPa | 2.54 mm | - | - | - |
| 1777914633 | 17.22° C | 100% | 0 hPa | 2.03 mm | - | - | - |
| 1777913733 | 18.33° C | 97% | 0 hPa | 0.51 mm | - | - | - |
| 1777913432 | 18.33° C | 96% | 0 hPa | 0.25 mm | - | - | - |
| 1777912833 | 18.33° C | 93% | 0 hPa | 0 mm | - | - | - |
| 1777912532 | 18.89° C | 93% | 0 hPa | 0 mm | - | - | - |
| 1777912230 | 18.89° C | 93% | 0 hPa | 0 mm | - | - | - |
| 1777911332 | 18.89° C | 92% | 0 hPa | 0 mm | - | - | - |
| 1777911032 | 18.89° C | 92% | 0 hPa | 0 mm | - | - | - |
* Rain latest hour (hover to see other rain measurements)
** Current wind speed in m/s (hover to see current wind gust speed)